Location: ?????????
(54.7630°N, 39.4991°E)
Time: 07:28:07
(UTC+00:00)

SL-16 R/B - Pass Details

Date: 14 April 2026
Orbit: 839 x 849 km, 71.0° (Epoch: 13 May)

Event Time Altitude Azimuth Distance (km) Brightness Sun altitude
Exits shadow 19:31:28 46° 150° (SSE) 1,123 2.4 -21.5°
Maximum altitude 19:32:31 52° 114° (ESE) 1,039 2.3 -21.6°
Drops below altitude 10° 19:38:01 10° 39° (NE) 2,478 4.9 -22.0°
Sets 19:40:31 0° 35° (NE) 3,419 5.7 -22.2°
